Weather Roundup
Issued by NWS

Home | Current Version | Previous Version | Text Only | Print | Product List | Glossary On
Versions: 1 2 3 4 5 6 7 8 9 10 11 12 13 14 15 16 17 18 19 20 21 22 23 24 25 26 27 28 29 30 31 32 33 34 35 36 37 38 39 40 41 42 43 44 45 46 47 48 49 50
935
NZUS93 KARX 131410
HRRWXR

CURRENT HOURLY OBSERVATIONS ACROSS
MUCH OF THE UPPER MISSISSIPPI VALLEY
NATIONAL WEATHER SERVICE LA CROSSE WI
800 AM CST SAT FEB 13 2016


...SOUTHEAST MINNESOTA...


CITY           SKY/WX    TMP DP  RH WIND       PRES   REMARKS
ROCHESTER      PTCLDY    -9 -15  75 NW6       30.57S WCI -22
ROCHESTER/MAYO FAIR      -5 -12  71 NW3       30.60S
WINONA         CLOUDY    -4 -13  65 NW6       30.67R WCI -16
AUSTIN         PTCLDY    -8 -11  84 CALM      30.58S
ALBERT LEA     CLOUDY    -6 -11  77 CALM      30.59R
DODGE CENTER   PTCLDY   N/A N/A N/A N3        30.57F
PRESTON        PTCLDY   -10 -16  72 N5        30.58R WCI -21
OWATONNA       PTCLDY    -9 -15  77 CALM      30.60S
FARIBAULT      PTCLDY   -15 -18  84 NE1       30.61F
$$

...ELSEWHERE IN MINNESOTA...


CITY           SKY/WX    TMP DP  RH WIND       PRES   REMARKS
MINNEAPOLIS    PTCLDY    -6 -13  71 W5        30.64S WCI -17
INTNL FALLS    CLOUDY   -28 -33  77 CALM      30.54S
DULUTH         CLOUDY   -16 -22  74 NW6       30.51R WCI -31
RED WING       CLOUDY   -11 -18  70 N3        30.65R
REDWOOD FALLS  CLOUDY    -3  -9  75 CALM      30.62R
MANKATO        CLOUDY    -6  -9  84 CALM      30.62R
WORTHINGTON    CLOUDY    -4  -9  77 SE6       30.55S WCI -16
FAIRMONT       CLOUDY    -2  -9  71 N3        30.59R
$$

...SOUTHWEST WISCONSIN...


CITY           SKY/WX    TMP DP  RH WIND       PRES   REMARKS
LA CROSSE      CLOUDY    -5 -16  59 N3        30.65R
PRAIRIE DU CHI CLOUDY    -4 -14  63 CALM      30.65R
BOSCOBEL       CLOUDY    -8 -13  78 SW3       30.64R
LONE ROCK      CLOUDY    -3 -15  56 W3        30.62R
PLATTEVILLE    PTCLDY    -3 -11  69 W3        30.59R
FORT MC COY    CLOUDY   -15 -21  74 CALM      30.62S
CAMP DOUGLAS   CLEAR     -9 -18  64 NW7       30.59R WCI -24
VIROQUA        FAIR      -5 -17  57 CALM      30.54S
WIS DELLS      PTCLDY    -4 -16  56 NW7       30.57S WCI -18
$$

...ELSEWHERE IN WISCONSIN...


CITY           SKY/WX    TMP DP  RH WIND       PRES   REMARKS
MILWAUKEE      MOSUNNY    1 -12  54 NW13      30.55R WCI -17
MADISON        CLOUDY    -2 -15  54 N10       30.57R WCI -19
GREEN BAY      CLEAR     -4 -12  68 NW12      30.54R WCI -22
EAU CLAIRE     CLOUDY   -10 -18  67 W6        30.62R WCI -23
BLACK RVR FLS  FAIR     -13 -21  69 CALM      30.61S
MEDFORD        CLOUDY   -13 -19  73 W6        30.50R WCI -27
WAUSAU         CLOUDY    -9 -16  71 NW8       30.51R WCI -25
WIS RAPIDS     CLOUDY    -8 -18  61 NW7       30.57R WCI -23
MARSHFIELD     CLOUDY    -9 -19  61 NW13      30.52R WCI -29
RICE LAKE      PTCLDY   -12 -19  71 CALM      30.60R
$$

...NORTHEAST IOWA...


CITY           SKY/WX    TMP DP  RH WIND       PRES   REMARKS
WATERLOO       CLOUDY    -3 -10  72 W3        30.63S
DUBUQUE        CLOUDY     0 -10  63 N8        30.59R WCI -14
DECORAH        PTCLDY    -8 -15  71 NW6       30.59R WCI -21
MASON CITY     CLOUDY    -6 -11  79 W5        30.61S WCI -17
CHARLES CITY   PTCLDY    -8 -15  71 CALM      30.62R
OELWEIN        PTCLDY    -6 -13  71 W7        30.62R WCI -20
$$

...ELSEWHERE IN IOWA...


CITY           SKY/WX    TMP DP  RH WIND       PRES   REMARKS
DES MOINES     CLOUDY     4  -4  69 W3        30.66R
IOWA CITY      CLOUDY     4  -5  66 NW6       30.68R WCI  -7
FORT DODGE     CLOUDY    -2  -9  71 CALM      30.63R
MARSHALLTOWN   CLOUDY     0  -7  72 N3        30.63R
CEDAR RAPIDS   CLOUDY     2  -6  69 N7        30.62S WCI -11
$$

...NORTHERN ILLINOIS...


CITY           SKY/WX    TMP DP  RH WIND       PRES   REMARKS
CHICAGO-OHARE  MOSUNNY    4  -9  55 NW12      30.57R WCI -12
CHICAGO-MIDWAY MOSUNNY    6 -10  47 NW12      30.58R WCI  -9
MOLINE         PTCLDY     6  -6  57 NW5       30.65R WCI  -3
ROCKFORD       MOSUNNY    3 -10  54 NW10      30.61R WCI -12
PEORIA         CLOUDY     6  -8  52 N5        30.64S WCI  -3
$$

NOTE: "FAIR" INDICATES FEW OR NO CLOUDS BELOW 12,000 FEET WITH NO
SIGNIFICANT WEATHER AND/OR OBSTRUCTIONS TO VISIBILITY. WIND
SPEEDS ARE IN MILES-PER-HOUR.




USA.gov is the U.S. government's official web portal to all federal, state and local government web resources and services.